Weather Roundup
Issued by NWS Chicago, IL

Home | Current Version | Previous Version | Graphics & Text | Print | Product List | Glossary On
Versions: 1 2 3 4 5 6 7 8 9 10 11 12 13 14 15 16 17 18 19 20 21 22 23 24 25 26 27 28 29 30 31 32 33 34 35 36 37 38 39 40 41 42 43 44 45 46 47 48 49 50
000
NZUS59 KLOT 221021
HRRLOT

CHICAGO AREA WEATHER ROUNDUP
NATIONAL WEATHER SERVICE CHICAGO/ROMEOVILLE IL
500 AM CDT FRI MAY 22 2015

NOTE: "FAIR" INDICATES FEW OR NO CLOUDS BELOW 12,000 FEET WITH NO
SIGNIFICANT WEATHER AND/OR OBSTRUCTIONS TO VISIBILITY.

* THESE STATIONS ARE NOT UNDER NWS QUALITY CONTROL. THEY ALSO MAY NOT
  REPORT WEATHER SUCH AS PRECIPITATION OR FOG.

ILZ005-006-012>014-019>023-221100-
NORTHEAST ILLINOIS

CITY           SKY/WX    TMP DP  RH WIND       PRES   REMARKS
OHARE          CLEAR     47  39  74 N9        30.10R
MIDWAY         CLEAR     53  44  71 N5        30.09R
AURORA         CLEAR     44  39  82 NW5       30.10R
LANSING*       CLEAR     44  39  85 CALM      30.09R
JOLIET*        CLEAR     46  44  93 CALM      30.10R
WAUKEGAN       CLEAR     42  38  85 CALM      30.11R
DUPAGE AIRPORT CLEAR     44  41  89 N7        30.10R
WHEELING       CLEAR     46  38  73 N5        30.13R
KANKAKEE*      CLEAR     51  46  82 W6        30.10R
MORRIS*        CLEAR     48  44  86 NW5       30.06R
LEWIS AIRPORT* CLEAR     48  43  81 N5        30.09R
NORTHERLY IS     N/A     48  42  80 N12         N/A
$$

WIZ051-052-058>065-066-070>072-221100-
SOUTHEAST WISCONSIN

CITY           SKY/WX    TMP DP  RH WIND       PRES   REMARKS
MILWAUKEE      CLEAR     43  32  65 N7        30.13R
KENOSHA*       CLEAR     42  34  73 N3        30.12R
RACINE*        CLEAR     45  35  68 N5        30.14R
BURLINGTON     CLEAR     38  33  83 CALM      30.12R
WAUKESHA       CLEAR     39  32  75 CALM      30.14R
WEST BEND      CLEAR     36  34  93 CALM      30.15R
$$

INZ001>003-010>013-019-020-221100-
NORTHWEST INDIANA

CITY           SKY/WX    TMP DP  RH WIND       PRES   REMARKS
GARY*          CLEAR     46  45  93 MISG      30.10R
MICHIGAN CITY* NOT AVBL
RENSSELAER*    NOT AVBL
VALPARAISO     CLEAR     48  41  76 SW3       30.09R
$$

LMZ740>746-221100-
SOUTHERN LAKE MICHIGAN

STATION/POSITION TIME  SKY/WX   TEMP WIND        PRES    VSBY
                                AIR  DIR/SP/G
                 (UTC)          (F)  (DEG/KT/KT) (MB)    (MI)
HARRISON CRIB    1000            47  350/ 11/ 12   N/A
BURNHAM HARBOR   1000            48  360/ 11/ 11   N/A
CALUMET HARBOR   0900            52  350/  8/ 10   N/A
BURNS HARBOR     0900            54  190/  6/  6 1019.0R
MICHIGAN CITY    1000            52   40/  5/  6   N/A
$$

ABBREVIATIONS USED IN REMARKS
   TC - TEMPERATURE IN CELSIUS
  WCI - WIND CHILL INDEX
   HX - HEAT INDEX
  VSB - VISIBILITY
$$



USA.gov is the U.S. government's official web portal to all federal, state and local government web resources and services.